Location: Killam
(52.7910°N, 111.8608°W)
Time: 15:55:00
(UTC+00:00)

Injun/Solrad 3 - Pass Details

Date: 21 February 2026
Orbit: 872 x 984 km, 66.8° (Epoch: 7 March)

Event Time Altitude Azimuth Distance (km) Brightness Sun altitude
Rises 03:15:12 0° 318° (NW) 3,572 11.8 -22.6°
Reaches altitude 10° 03:17:49 10° 311° (NW) 2,643 11.1 -22.9°
Maximum altitude 03:23:30 40° 244° (WSW) 1,359 9.1 -23.8°
Drops below altitude 10° 03:29:19 10° 177° (S) 2,697 10.1 -24.6°
Enters shadow 03:29:20 10° 177° (S) 2,706 10.1 -24.6°
